sat.trackr.live / text

‹ back to catalog

YUNHAI-2 01D

NORAD 43912 · 2018-112D

PAYLOAD ACTIVE UNKNOWN

§ Identity

Operator
Country
PRC
Launch date
2018-12-29
Launch site
JSC
Launch vehicle
Mass (kg)
RCS (m²)

External: N2YO · Heavens-Above · Gunter

§ Orbital elements

Epoch: 2026-05-25T04:30:04.536864Z

Period
100.77 min
Inclination
50.0117°
Eccentricity
0.0015339
Mean motion
14.29021271 rev/d
Perigee alt
784.0 km
Apogee alt
806.0 km
Semi-major
7,173.1 km
B*
8.6015e-5
RAAN
25.0625°
Arg perigee
265.3215°
Mean anomaly
94.5949°
Rev number
38,429

§ Raw data

YUNHAI-2 01D1 43912U 18112D   26145.18755251  .00000058  00000+0  86015-4 0  99902 43912  50.0117  25.0625 0015339 265.3215  94.5949 14.29021271384295

JSON: /api/v1/satellites/43912 · /tle

For live sub-satellite position, see the globe view (requires WebGL).

§ Visibility from observer

Set your observer location to see the next 7 days of passes ≥ 10°. The values pass through the URL so the page stays shareable.

No JS? Fill the form by hand. The geolocation button needs JavaScript.